Вернуться в каталог

SL-14 DEB

АктивенPO
NORAD 39976·DEBRIS·🇷🇺 Russia

Запущен Aug 18, 1987 с Plesetsk Cosmodrome

Loading…

Ближайшие Пролёты (ближайшие 24 часа)

TLE

УстаревающийSource: Space-Track

Эпоха: Sep 9, 2026, 06:28 UTC

1 39976U 87068DC  26252.26990587  .00000792  00000-0  48931-3 0  9992
2 39976  82.5437  89.3969 0010396  95.3732 264.8626 14.04232316143993

Отслеживайте SL-14 DEB в реальном времени с AllMySat

Download on the App Store